#timestamp,LO_Frequency,Hit,StdDev 
1558101615.6,286046998.1,N
1558101635.5,286046998.9,N
1558101655.3,286046998.1,N
1558101675.2,286046998.5,N
1558101695.9,286046999.0,N
1558101715.7,286046998.9,N
1558101735.6,286046999.5,N
1558101755.4,286046996.5,N
1558101775.2,286046999.1,N
1558101795.1,286046998.2,N
1558101796.0,286046998.2,N
1558101815.9,286047001.0,N
1558101835.7,286047002.0,N
1558101855.6,286047000.1,N
1558101875.4,286047001.0,N
1558101895.3,286047000.4,N
1558101915.1,286047000.8,N
1558101916.0,286047000.8,N
1558101935.8,286047001.1,N
1558101955.7,286046996.9,N
1558101975.5,286046998.4,N
1558101995.3,286046998.7,N
1558102015.2,286047001.0,N
1558102035.0,286047000.5,N
1558102035.9,286047000.5,N
1558102055.8,286047000.8,N
1558102075.6,286046998.8,N
1558102095.4,286046998.2,N
1558102115.3,286046998.2,N
1558102135.1,286046999.6,N
1558102155.8,286046998.2,N
1558102175.7,286047001.1,N
1558102195.5,286047002.5,N
1558102215.4,286047004.4,Y
1558102235.2,286047001.7,P
1558102255.0,286047001.9,N
1558102255.9,286047001.9,N
1558102275.8,286046999.7,N
1558102295.6,286047000.4,N
1558102315.5,286046999.9,N
1558102335.3,286047002.3,N
1558102355.1,286047000.1,N
1558102375.9,286047002.7,N
1558102395.7,286047002.7,N
1558102415.5,286047000.9,N
1558102435.4,286047002.5,N
1558102455.2,286046999.8,N
1558102475.1,286047002.0,N
1558102476.0,286047002.0,N
1558102495.8,286046999.7,N
1558102515.6,286047002.3,N
1558102535.5,286047002.4,N
1558102555.3,286047000.1,N
1558102575.2,286047000.0,N
1558102595.9,286047001.0,N
1558102615.7,286047001.0,N
1558102635.6,286046998.2,N
1558102655.4,286046998.7,N
1558102675.2,286047001.2,N
1558102695.1,286047002.6,N
1558102696.0,286047002.6,N
1558102715.8,286047001.6,N
1558102735.7,286047003.1,N
1558102755.5,286047003.5,N
1558102775.3,286047003.3,N
1558102795.2,286047002.0,N
1558102815.9,286047002.4,N
1558102835.7,286047002.4,N
1558102855.6,286047001.4,N
1558102875.4,286047003.1,N
1558102895.2,286047003.8,N
1558102915.1,286047011.9,Y
1558102916.0,286047004.2,P
1558102935.6,286047003.1,N
1558102955.4,286047001.9,N
1558102975.2,286047001.9,N
1558102995.1,286047000.3,N
1558102996.0,286047000.3,N
1558103015.8,286047000.5,N
1558103035.6,286046999.8,N
1558103055.5,286047004.1,N
1558103075.3,286047005.9,Y
1558103095.2,286047002.0,P
1558103115.9,286047000.3,N
1558103135.7,286046998.6,N
1558103155.6,286047001.1,N
1558103175.4,286046998.9,N
1558103195.2,286046998.8,N
1558103215.1,286046998.0,N
1558103216.0,286046998.0,N
1558103235.8,286046997.6,N
1558103255.7,286046996.6,N
1558103275.5,286046998.4,N
1558103295.3,286047000.9,N
1558103315.2,286046999.8,N
1558103335.9,286047002.3,N
1558103355.7,286046998.6,N
1558103375.6,286047001.1,N
1558103395.4,286047001.1,N
1558103415.3,286047001.0,N
1558103435.1,286047000.6,N
1558103436.0,286047000.6,N
1558103455.8,286046999.1,N
1558103475.7,286046996.5,N
1558103495.5,286046999.4,N
1558103515.3,286046997.1,N
1558103535.2,286046998.5,N
1558103555.0,286047000.8,N
1558103555.9,286047000.8,N
1558103575.8,286047002.7,N
1558103595.6,286047000.4,N
1558103615.4,286047000.9,N
1558103635.3,286046998.4,N
1558103655.1,286046999.3,N
1558103675.8,286046998.4,N
1558103695.7,286046999.2,N
1558103715.5,286046997.7,N
1558103735.4,286046996.8,N
1558103755.2,286046997.2,N
1558103775.0,286046999.3,N
1558103775.9,286046999.3,N
1558103795.8,286046999.3,N
1558103815.6,286046997.0,N
1558103835.4,286047000.4,N
1558103855.3,286046998.9,N
1558103875.1,286046996.9,N
1558103895.9,286046997.2,N
1558103915.7,286046998.4,N
1558103935.5,286046999.2,N
1558103955.4,286046997.2,N
1558103975.2,286046997.9,N
1558103995.0,286046996.1,N
1558103995.9,286046996.1,N
1558104015.8,286046997.7,N
1558104035.6,286046999.3,N
1558104055.5,286046998.9,N
1558104075.3,286046999.0,N
1558104095.1,286046999.0,N
1558104115.9,286047000.8,N
1558104135.7,286046999.4,N
1558104155.5,286046998.8,N
1558104175.4,286046999.4,N
1558104195.2,286046999.4,N
1558104215.1,286046998.9,N
1558104216.0,286046998.9,N
1558104235.8,286046998.5,N
1558104255.6,286047000.8,N
1558104275.5,286047000.5,N
1558104295.3,286047000.3,N
1558104315.2,286046999.7,N
1558104335.9,286047002.4,N
1558104355.7,286047002.5,N
1558104375.6,286047003.8,N
1558104395.4,286047003.5,N
1558104415.2,286047003.8,N
1558104435.1,286047003.6,N
1558104436.0,286047003.6,N
1558104455.8,286047001.9,N
1558104475.7,286047002.5,N
1558104495.5,286047004.1,N
1558104515.3,286047004.2,N
1558104535.2,286047001.8,N
1558104555.0,286047004.4,N
1558104555.9,286047004.4,N
1558104575.7,286047002.2,N
1558104595.6,286047001.4,N
1558104615.4,286047002.3,N
1558104635.3,286047002.7,N
1558104655.1,286047002.2,N
1558104675.8,286047002.7,N
1558104695.7,286047002.8,N
1558104715.5,286047000.2,N
1558104735.4,286046998.3,N
1558104755.8,286046998.8,N
1558104775.6,286047001.2,N
1558104795.4,286046996.5,N
1558104815.3,286046996.7,N
1558104835.1,286046996.7,N
1558104855.9,286046998.2,N
1558104875.7,286047000.9,N
1558104895.5,286047000.2,N
1558104915.4,286047000.0,N
1558104935.2,286046998.1,N
1558104955.0,286046998.7,N
1558104955.9,286046998.7,N
1558104975.8,286046999.2,N
1558104995.6,286046999.2,N
1558105015.5,286046996.6,N
1558105035.3,286046996.9,N
1558105055.1,286046997.1,N
1558105075.9,286046997.2,N
1558105095.7,286046997.2,N
1558105115.5,286046996.6,N
1558105135.4,286046996.7,N
1558105155.2,286046997.4,N
1558105175.0,286046995.8,N
1558105176.0,286046995.8,N
1558105195.8,286046997.8,N
